OK1JRA-6 Weather Reports


time (UTC)temp
C
wind
direction
speed
KPH
gust
KPH
rain 1hr
cm
rain 24hr
cm
rain mn
cm
humidity
%
barometer
mb
20260507052519 11 257 6.4 11.3 0.00 0.00 0.00 83 1010.9
20260507045948 11 283 4.8 8.0 0.00 0.00 0.00 84 1010.6
20260507045443 11 287 6.4 11.3 0.00 0.00 0.00 84 1010.6
20260507044940 11 300 6.4 8.0 0.00 0.00 0.00 85 1.0
20260507044936 11 300 6.4 8.0 0.00 0.00 0.00 85 1010.5
20260507044430 11 293 6.4 11.3 0.00 0.00 0.00 85 1010.4
20260507043923 11 279 6.4 11.3 0.00 0.00 0.00 86 1010.4
20260507043417 11 280 4.8 6.4 0.00 0.00 0.00 86 1010.3
20260507042911 11 265 3.2 4.8 0.00 0.00 0.00 87 1010.3
20260507042405 11 254 3.2 4.8 0.00 0.00 0.00 88 1010.3
20260507041859 11 255 3.2 8.0 0.00 0.00 0.00 88 1010.2
20260507041353 11 226 1.6 4.8 0.00 0.00 0.00 88 1010.1
20260507040340 11 279 1.6 4.8 0.00 0.00 0.00 88 1010.0
20260507035834 11 284 3.2 3.2 0.00 0.00 0.00 88 1010.0
20260507034822 11 276 1.6 3.2 0.00 0.00 0.00 88 1010.0
20260507034316 11 271 1.6 3.2 0.00 0.00 0.00 88 1010.0
20260507033809 11 273 1.6 3.2 0.00 0.00 0.00 88 1009.9
20260507033303 11 279 3.2 3.2 0.00 0.00 0.00 88 1009.9
20260507032757 11 275 3.2 3.2 0.00 0.00 0.00 88 1009.8
20260507031745 11 279 3.2 4.8 0.00 0.00 0.00 88 1009.8
20260507031239 11 260 1.6 1.6 0.00 0.00 0.00 88 1009.9
20260507030733 11 180 0.0 0.0 0.00 0.00 0.00 88 1009.9
20260507030227 11 259 0.0 0.0 0.00 0.00 0.00 88 1009.8
20260507025720 11 269 1.6 1.6 0.00 0.00 0.00 88 1009.8
20260507025214 11 272 1.6 1.6 0.00 0.00 0.00 88 1009.7
20260507024202 11 268 1.6 4.8 0.00 0.00 0.00 88 1009.7
20260507023656 11 264 3.2 4.8 0.00 0.00 0.00 88 1009.7
20260507023149 11 273 1.6 3.2 0.00 0.00 0.00 88 1009.7
20260507022643 11 280 1.6 3.2 0.00 0.00 0.00 88 1009.7
20260507022137 11 275 3.2 3.2 0.00 0.00 0.00 88 1009.7
20260507021631 11 291 3.2 4.8 0.00 0.00 0.00 88 1009.6
20260507021125 11 280 3.2 4.8 0.00 0.00 0.00 87 1009.5
20260507020619 11 255 1.6 3.2 0.00 0.00 0.00 87 1009.5
20260507020112 11 282 1.6 3.2 0.00 0.00 0.00 87 1009.5
20260507015606 11 276 1.6 4.8 0.00 0.00 0.00 87 1009.4
20260507015100 11 271 1.6 3.2 0.00 0.00 0.00 87 1009.4
20260507014554 11 282 1.6 3.2 0.00 0.00 0.00 87 1009.3
20260507014048 10 273 1.6 1.6 0.00 0.00 0.00 87 1009.2
20260507013542 10 270 1.6 3.2 0.00 0.00 0.00 87 1009.3
20260507013036 10 296 1.6 3.2 0.00 0.00 0.00 87 1009.2
20260507012529 10 255 1.6 4.8 0.00 0.00 0.00 87 1009.2
20260507012023 10 266 3.2 4.8 0.00 0.00 0.00 87 1009.2
20260507011517 10 229 3.2 3.2 0.00 0.00 0.00 87 1009.1
20260507011011 10 228 3.2 4.8 0.00 0.00 0.00 87 1009.1
20260507010505 10 225 1.6 3.2 0.00 0.00 0.00 86 1009.0
20260507005959 10 250 1.6 1.6 0.00 0.00 0.00 86 1009.0
20260507005452 10 218 1.6 4.8 0.00 0.00 0.00 86 1009.0
20260507004946 10 300 1.6 3.2 0.00 0.00 0.00 86 1009.0
20260507004440 10 312 3.2 4.8 0.00 0.00 0.00 86 1008.9
20260507003934 10 317 1.6 3.2 0.00 0.00 0.00 86 1008.9
20260507003428 10 315 1.6 3.2 0.00 0.00 0.00 86 1009.0
20260507002922 10 289 1.6 1.6 0.00 0.00 0.00 86 1008.9
20260507002415 10 270 1.6 3.2 0.00 0.00 0.00 86 1009.0
20260507001909 10 328 1.6 3.2 0.00 0.00 0.00 86 1008.9
20260507001403 10 0 1.6 1.6 0.00 0.00 0.00 86 1008.9
20260507000857 10 0 1.6 1.6 0.00 0.00 0.00 86 1008.9
20260507000351 10 0 0.0 1.6 0.00 0.00 0.00 85 1008.9
20260506235845 10 0 0.0 0.0 0.00 0.00 0.00 85 1009.0
20260506234834 10 326 3.2 4.8 0.00 0.00 0.00 85 1009.0
20260506234326 11 308 3.2 4.8 0.00 0.00 0.00 85 1009.0
20260506233820 11 315 3.2 3.2 0.00 0.00 0.00 86 1009.0
20260506233314 11 310 3.2 4.8 0.00 0.00 0.00 86 1009.1
20260506232808 11 308 4.8 6.4 0.00 0.00 0.00 86 1009.1
20260506232305 11 272 3.2 4.8 0.00 0.00 0.00 86 1009.1
20260506231756 11 277 6.4 9.7 0.00 0.00 0.00 85 1009.1
20260506231249 11 243 4.8 8.0 0.00 0.00 0.00 85 1009.0
20260506230743 11 234 4.8 8.0 0.00 0.00 0.00 85 1008.7
20260506230237 11 244 3.2 4.8 0.00 0.00 0.00 85 1008.6
20260506225731 11 250 3.2 3.2 0.00 0.00 0.00 85 1008.5
20260506225225 11 244 3.2 3.2 0.00 0.00 0.00 84 1008.5
20260506224718 11 252 3.2 4.8 0.00 0.00 0.00 83 1008.5
20260506224212 11 285 3.2 4.8 0.00 0.00 0.00 83 1008.3
20260506223706 11 261 1.6 1.6 0.00 0.00 0.00 83 1008.3
20260506223200 11 225 3.2 3.2 0.00 0.00 0.00 83 1008.3
20260506222654 11 248 1.6 4.8 0.00 0.00 0.00 83 1008.1
20260506222148 11 304 4.8 4.8 0.00 0.00 0.00 83 1008.0
20260506221642 11 277 3.2 3.2 0.00 0.00 0.00 83 1008.0
20260506221135 12 275 1.6 4.8 0.00 0.00 0.00 83 1008.1
20260506220629 12 293 3.2 4.8 0.00 0.00 0.00 83 1008.2
20260506220123 12 346 3.2 4.8 0.00 0.00 0.00 83 1008.2
20260506215617 12 342 4.8 4.8 0.00 0.00 0.00 83 1008.3
20260506215111 12 358 3.2 4.8 0.00 0.00 0.00 83 1008.2
20260506214605 12 338 6.4 9.7 0.00 0.00 0.00 83 1008.2
20260506214058 12 2 4.8 9.7 0.00 0.00 0.00 83 1008.2
20260506213552 12 328 8.0 11.3 0.00 0.00 0.00 83 1008.1
20260506213046 12 325 8.0 12.9 0.00 0.00 0.00 83 1008.2
20260506212540 12 332 4.8 6.4 0.00 0.00 0.00 83 1008.2
20260506212034 12 327 6.4 9.7 0.00 0.00 0.00 83 1008.1
20260506211528 12 314 6.4 9.7 0.00 0.00 0.00 83 1008.1
20260506211021 12 314 6.4 11.3 0.00 0.00 0.00 83 1008.2
20260506210515 12 308 6.4 17.7 0.00 0.00 0.00 83 1008.2
20260506210009 12 309 9.7 14.5 0.03 0.00 0.00 83 1008.0
20260506205503 12 310 8.0 16.1 0.05 0.00 0.00 82 1008.0
20260506204957 12 321 1.6 3.2 0.08 0.00 0.00 81 1007.3
20260506203944 12 303 3.2 3.2 0.15 0.00 0.00 81 1007.2
20260506203438 13 169 1.6 4.8 0.15 0.00 0.00 80 1007.1
20260506202932 13 135 1.6 3.2 0.20 0.00 0.00 80 1007.0
20260506201413 13 180 1.6 3.2 0.51 0.00 0.00 79 1007.1
20260506200907 13 69 0.0 1.6 0.51 0.00 0.00 79 1007.2
20260506200401 13 77 1.6 1.6 0.51 0.00 0.00 78 1007.2
20260506195855 13 270 0.0 1.6 0.48 0.00 0.00 78 1007.1
20260506194322 13 319 3.2 4.8 0.38 0.00 0.00 77 1007.4
20260506193810 13 272 3.2 4.8 0.36 0.00 0.00 76 1007.4
20260506193303 13 218 3.2 4.8 0.36 0.00 0.00 75 1007.4
20260506192742 14 293 6.4 9.7 0.30 0.00 0.00 73 1007.5
20260506192158 15 254 6.4 11.3 0.23 0.00 0.00 71 1007.4
20260506191545 15 289 6.4 11.3 0.00 0.00 0.00 62 1007.3
20260506191042 15 307 9.7 16.1 0.00 0.00 0.00 64 1006.8
20260506191038 15 307 9.7 16.1 0.00 0.00 0.00 64 1006.8
20260506190532 16 183 1.6 3.2 0.00 0.00 0.00 61 1006.5
20260506190026 16 137 3.2 4.8 0.00 0.00 0.00 60 1005.9
20260506185520 16 123 0.0 1.6 0.00 0.00 0.00 59 1005.8
20260506185014 16 170 1.6 3.2 0.00 0.00 0.00 58 1005.9
20260506184001 16 336 0.0 1.6 0.00 0.00 0.00 57 1005.8
20260506183455 16 132 1.6 4.8 0.00 0.00 0.00 57 1005.5
20260506182949 16 152 1.6 1.6 0.00 0.00 0.00 56 1005.3
20260506182443 16 162 0.0 1.6 0.00 0.00 0.00 55 1005.2
20260506181937 17 135 0.0 0.0 0.00 0.00 0.00 55 1005.2
20260506181431 17 87 1.6 1.6 0.00 0.00 0.00 54 1005.2
20260506174354 18 42 1.6 3.2 0.00 0.00 0.00 51 1004.9
20260506173848 18 40 1.6 3.2 0.00 0.00 0.00 51 1004.9
20260506172835 19 56 4.8 6.4 0.00 0.00 0.00 50 1004.7
20260506172329 20 35 4.8 8.0 0.00 0.00 0.00 49 1004.7
20260506171317 20 31 3.2 4.8 0.00 0.00 0.00 48 1004.7
20260506170811 20 35 3.2 4.8 0.00 0.00 0.00 48 1004.7
20260506170305 21 51 6.4 9.7 0.00 0.00 0.00 48 1004.7
20260506165758 21 45 6.4 8.0 0.00 0.00 0.00 47 1004.7
20260506165252 21 8 4.8 8.0 0.00 0.00 0.00 48 1004.8
20260506164746 21 4 4.8 11.3 0.00 0.00 0.00 48 1004.8
20260506163734 21 9 6.4 9.7 0.00 0.00 0.00 46 1004.6
20260506163227 21 20 8.0 11.3 0.00 0.00 0.00 46 1004.6
20260506162721 21 21 6.4 11.3 0.00 0.00 0.00 45 1004.6
20260506162215 22 11 6.4 9.7 0.00 0.00 0.00 45 1004.7
20260506161709 22 7 8.0 11.3 0.00 0.00 0.00 44 1004.8
20260506160657 22 42 3.2 4.8 0.00 0.00 0.00 43 1004.8
20260506160151 22 75 1.6 3.2 0.00 0.00 0.00 44 1004.7
20260506155644 21 120 1.6 3.2 0.00 0.00 0.00 44 1004.7
20260506155138 21 108 1.6 3.2 0.00 0.00 0.00 46 1004.6
20260506154632 21 136 1.6 4.8 0.00 0.00 0.00 43 1004.7
20260506154126 21 128 3.2 4.8 0.00 0.00 0.00 42 1004.7
20260506153620 21 111 3.2 4.8 0.00 0.00 0.00 42 1004.8
20260506152607 22 112 4.8 8.0 0.00 0.00 0.00 41 1004.8
20260506152101 22 129 4.8 8.0 0.00 0.00 0.00 40 1004.9
20260506151555 23 139 4.8 8.0 0.00 0.00 0.00 39 1004.9
20260506151049 23 138 4.8 8.0 0.00 0.00 0.00 40 1005.0
20260506150543 23 133 8.0 9.7 0.00 0.00 0.00 40 1005.1
20260506150036 22 131 6.4 11.3 0.00 0.00 0.00 39 1005.1
20260506145530 23 120 6.4 11.3 0.00 0.00 0.00 37 1005.1
20260506145024 23 111 3.2 6.4 0.00 0.00 0.00 36 1005.1
20260506144518 24 98 3.2 8.0 0.00 0.00 0.00 35 1005.1
20260506143000 25 119 3.2 4.8 0.00 0.00 0.00 33 1005.3
20260506142453 26 114 3.2 4.8 0.00 0.00 0.00 32 1005.3
20260506141947 26 96 4.8 9.7 0.00 0.00 0.00 31 1005.4
20260506141441 27 105 3.2 6.4 0.00 0.00 0.00 29 1005.4
20260506140935 28 133 3.2 4.8 0.00 0.00 0.00 27 1005.4
20260506135923 31 189 3.2 8.0 0.00 0.00 0.00 24 1005.5
20260506135416 33 345 3.2 8.0 0.00 0.00 0.00 22 1005.6
20260506134910 35 30 3.2 4.8 0.00 0.00 0.00 21 1005.7
20260506133858 33 253 1.6 3.2 0.00 0.00 0.00 21 1005.7
20260506133352 33 84 1.6 3.2 0.00 0.00 0.00 22 1005.8
20260506132845 33 147 1.6 4.8 0.00 0.00 0.00 21 1005.8
20260506131833 33 137 1.6 4.8 0.00 0.00 0.00 22 1005.8
20260506131327 33 114 1.6 4.8 0.00 0.00 0.00 23 1005.9
20260506130314 32 69 0.0 1.6 0.00 0.00 0.00 24 1005.8
20260506125808 31 61 1.6 1.6 0.00 0.00 0.00 25 1005.9
20260506125305 30 299 3.2 6.4 0.00 0.00 0.00 27 1006.0
20260506124756 30 263 3.2 4.8 0.00 0.00 0.00 24 1006.0
20260506123744 31 69 1.6 6.4 0.00 0.00 0.00 24 1006.1
20260506123237 30 315 4.8 8.0 0.00 0.00 0.00 27 1006.2
20260506122731 30 319 3.2 6.4 0.00 0.00 0.00 28 1006.3
20260506122225 30 318 3.2 6.4 0.00 0.00 0.00 29 1006.4
20260506121719 30 311 3.2 3.2 0.00 0.00 0.00 28 1006.5
20260506121213 30 217 3.2 6.4 0.00 0.00 0.00 25 1006.7
20260506120706 31 189 3.2 8.0 0.00 0.00 0.00 23 1006.8
20260506120200 33 221 4.8 4.8 0.00 0.00 0.00 20 1006.8
20260506115654 34 305 4.8 9.7 0.00 0.00 0.00 22 1006.8
20260506115148 34 351 3.2 4.8 0.00 0.00 0.00 25 1006.8
20260506114642 32 303 4.8 8.0 0.00 0.00 0.00 27 1006.8
20260506114136 32 359 3.2 9.7 0.00 0.00 0.00 27 1006.9
20260506113629 30 270 4.8 9.7 0.00 0.00 0.00 26 1006.9
20260506113123 30 203 3.2 8.0 0.00 0.00 0.00 28 1007.0
20260506112617 28 208 4.8 6.4 0.00 0.00 0.00 28 1007.0
20260506111605 28 314 3.2 6.4 0.00 0.00 0.00 36 1007.1
20260506111058 27 327 3.2 4.8 0.00 0.00 0.00 36 1007.1
20260506110552 25 287 4.8 6.4 0.00 0.00 0.00 39 1007.3
20260506110046 24 254 3.2 6.4 0.00 0.00 0.00 36 1007.2
20260506105540 23 240 4.8 6.4 0.00 0.00 0.00 34 1007.3
20260506105033 25 246 4.8 6.4 0.00 0.00 0.00 35 1007.4
20260506104527 25 288 6.4 11.3 0.00 0.00 0.00 36 1007.4
20260506104021 24 275 3.2 4.8 0.00 0.00 0.00 39 1007.4
20260506103515 23 277 4.8 6.4 0.00 0.00 0.00 39 1007.4
20260506103009 23 291 4.8 6.4 0.00 0.00 0.00 40 1007.5
20260506102502 23 272 4.8 9.7 0.00 0.00 0.00 37 1007.6
20260506101956 24 296 4.8 11.3 0.00 0.00 0.00 40 1007.7
20260506101450 23 301 3.2 6.4 0.00 0.00 0.00 41 1007.8
20260506100944 23 309 4.8 8.0 0.00 0.00 0.00 43 1007.8
20260506100438 22 291 6.4 9.7 0.00 0.00 0.00 42 1007.8
20260506095932 22 285 4.8 6.4 0.00 0.00 0.00 43 1007.8
20260506095425 21 305 4.8 9.7 0.00 0.00 0.00 48 1007.8
20260506094919 21 284 3.2 6.4 0.00 0.00 0.00 47 1007.9
20260506094413 21 300 3.2 4.8 0.00 0.00 0.00 48 1007.9
20260506093907 21 300 3.2 6.4 0.00 0.00 0.00 48 1007.9
20260506093401 20 263 4.8 9.7 0.00 0.00 0.00 49 1008.0
20260506092854 20 239 3.2 4.8 0.00 0.00 0.00 47 1007.9
20260506092348 20 261 3.2 4.8 0.00 0.00 0.00 49 1007.9
20260506091842 20 217 4.8 6.4 0.00 0.00 0.00 47 1007.9
20260506091336 20 270 4.8 8.0 0.00 0.00 0.00 48 1007.9
20260506090830 20 305 4.8 9.7 0.00 0.00 0.00 49 1007.8
20260506090324 20 282 4.8 8.0 0.00 0.00 0.00 49 1007.8
20260506085817 20 284 6.4 9.7 0.00 0.00 0.00 49 1007.9
20260506085311 20 249 6.4 8.0 0.00 0.00 0.00 48 1008.0
20260506084805 21 282 4.8 6.4 0.00 0.00 0.00 49 1007.9
20260506084259 20 273 4.8 9.7 0.00 0.00 0.00 50 1007.8
20260506083753 20 286 4.8 9.7 0.00 0.00 0.00 53 1007.8
20260506082740 19 310 6.4 9.7 0.00 0.00 0.00 55 1007.9
20260506081728 18 311 6.4 9.7 0.00 0.00 0.00 58 1007.8
20260506081222 18 312 6.4 11.3 0.00 0.00 0.00 59 1007.8
20260506080716 18 310 8.0 11.3 0.00 0.00 0.00 59 1007.7
20260506080209 18 314 6.4 8.0 0.00 0.00 0.00 63 1007.6
20260506072626 15 304 6.4 9.7 0.00 0.00 0.00 70 1007.9
20260506072120 15 310 6.4 11.3 0.00 0.00 0.00 71 1007.9
20260506070601 15 311 8.0 14.5 0.00 0.00 0.00 73 1007.8
20260506062512 13 126 0.0 3.2 0.00 0.00 0.00 81 1007.9
20260506062006 13 157 1.6 3.2 0.00 0.00 0.00 81 1007.8
20260506061500 13 123 1.6 4.8 0.00 0.00 0.00 82 1007.8
20260506060953 13 149 3.2 4.8 0.00 0.00 0.00 82 1007.8
20260506060447 13 126 3.2 4.8 0.00 0.00 0.00 83 1007.8